Year,Month,Day,Hour,Minute,Value (Times are PST for temperature in C)
2018,02,04,09,27,9.20
2018,02,04,09,28,9.20
2018,02,04,09,29,9.20
2018,02,04,09,30,9.20
2018,02,04,09,31,9.20
2018,02,04,09,32,9.20
2018,02,04,09,33,9.20
2018,02,04,09,34,9.20
2018,02,04,09,35,9.20
2018,02,04,09,36,9.20
2018,02,04,09,37,9.20
2018,02,04,09,38,9.20
2018,02,04,09,39,9.20
2018,02,04,09,40,9.20
2018,02,04,09,41,9.20
2018,02,04,09,42,9.20
2018,02,04,09,43,9.20
2018,02,04,09,44,9.20
2018,02,04,09,45,9.20
2018,02,04,09,46,9.30
2018,02,04,09,47,9.30
2018,02,04,09,48,9.20
2018,02,04,09,49,9.20
2018,02,04,09,50,9.20
2018,02,04,09,51,9.20
2018,02,04,09,52,9.20
2018,02,04,09,53,9.20
2018,02,04,09,54,9.20
2018,02,04,09,55,9.20
2018,02,04,09,56,9.20
2018,02,04,09,57,9.20
2018,02,04,09,58,9.20
2018,02,04,09,59,9.20
2018,02,04,10,00,9.20
2018,02,04,10,01,9.20
2018,02,04,10,02,9.20
2018,02,04,10,03,9.30
2018,02,04,10,04,9.30
2018,02,04,10,05,9.30
2018,02,04,10,06,9.30
2018,02,04,10,07,9.30
2018,02,04,10,08,9.30
2018,02,04,10,09,9.30
2018,02,04,10,10,9.30
2018,02,04,10,11,9.20
2018,02,04,10,12,9.20
2018,02,04,10,13,9.20
2018,02,04,10,14,9.20
2018,02,04,10,15,9.20
2018,02,04,10,16,9.20
2018,02,04,10,17,9.20
2018,02,04,10,18,9.20
2018,02,04,10,19,9.20
2018,02,04,10,20,9.20
2018,02,04,10,21,9.20
2018,02,04,10,22,9.20
2018,02,04,10,23,9.20
2018,02,04,10,24,9.20
2018,02,04,10,25,9.20
2018,02,04,10,26,9.20
2018,02,04,10,27,9.20
2018,02,04,10,28,9.20
2018,02,04,10,29,9.30
2018,02,04,10,30,9.30
2018,02,04,10,31,9.30
2018,02,04,10,32,9.30
2018,02,04,10,33,9.40
2018,02,04,10,34,9.40
2018,02,04,10,35,9.40
2018,02,04,10,36,9.50
2018,02,04,10,37,9.50
2018,02,04,10,38,9.60
2018,02,04,10,39,9.60
2018,02,04,10,40,9.60
2018,02,04,10,41,9.60
2018,02,04,10,42,9.70
2018,02,04,10,43,9.80
2018,02,04,10,44,9.80
2018,02,04,10,45,9.90
2018,02,04,10,46,10.00
2018,02,04,10,47,10.10
2018,02,04,10,48,10.10
2018,02,04,10,49,10.10
2018,02,04,10,50,10.20
2018,02,04,10,51,10.20
2018,02,04,10,52,10.30
2018,02,04,10,53,10.50
2018,02,04,10,54,10.60
2018,02,04,10,55,10.70
2018,02,04,10,56,10.80
2018,02,04,10,57,10.90
2018,02,04,10,58,11.00
2018,02,04,10,59,11.10
2018,02,04,11,00,11.10
2018,02,04,11,01,11.20
2018,02,04,11,02,11.20
2018,02,04,11,03,11.20
2018,02,04,11,04,11.20
2018,02,04,11,05,11.30
2018,02,04,11,06,11.30
2018,02,04,11,07,11.40
2018,02,04,11,08,11.40
2018,02,04,11,09,11.50
2018,02,04,11,10,11.50
2018,02,04,11,11,11.60
2018,02,04,11,12,11.70
2018,02,04,11,13,11.80
2018,02,04,11,14,11.90
2018,02,04,11,15,11.90
2018,02,04,11,16,12.00
2018,02,04,11,17,12.10
2018,02,04,11,18,12.20
2018,02,04,11,19,12.20
2018,02,04,11,20,12.30
2018,02,04,11,21,12.30
2018,02,04,11,22,12.40
2018,02,04,11,23,12.40
2018,02,04,11,24,12.50
2018,02,04,11,25,12.50
2018,02,04,11,26,12.60
2018,02,04,11,27,12.60
2018,02,04,11,28,12.60
2018,02,04,11,29,12.60
2018,02,04,11,30,12.60
2018,02,04,11,31,12.60
2018,02,04,11,32,12.60
2018,02,04,11,33,12.60
2018,02,04,11,34,12.70
2018,02,04,11,35,12.70
2018,02,04,11,36,12.70
2018,02,04,11,37,12.80
2018,02,04,11,38,12.90
2018,02,04,11,39,12.90
2018,02,04,11,40,13.00
2018,02,04,11,41,13.10
2018,02,04,11,42,13.10
2018,02,04,11,43,13.20
2018,02,04,11,44,13.20
2018,02,04,11,45,13.20
2018,02,04,11,46,13.30
2018,02,04,11,47,13.30
2018,02,04,11,48,13.40
2018,02,04,11,49,13.50
2018,02,04,11,50,13.50
2018,02,04,11,51,13.60
2018,02,04,11,52,13.70
2018,02,04,11,53,13.70
2018,02,04,11,54,13.70
2018,02,04,11,55,13.80
2018,02,04,11,56,13.80
2018,02,04,11,57,13.80
2018,02,04,11,58,13.90
2018,02,04,11,59,13.90
2018,02,04,12,00,13.90
2018,02,04,12,01,13.90
2018,02,04,12,02,13.90
2018,02,04,12,03,13.90
2018,02,04,12,04,14.00
2018,02,04,12,05,13.90
2018,02,04,12,06,13.90
2018,02,04,12,07,13.90
2018,02,04,12,08,13.90
2018,02,04,12,09,13.90
2018,02,04,12,10,13.90
2018,02,04,12,11,13.90
2018,02,04,12,12,13.90
2018,02,04,12,13,13.90
2018,02,04,12,14,13.90
2018,02,04,12,15,13.90
2018,02,04,12,16,14.00
2018,02,04,12,17,14.00
2018,02,04,12,18,14.10
2018,02,04,12,19,14.10
2018,02,04,12,20,14.20
2018,02,04,12,21,14.20
2018,02,04,12,22,14.20
2018,02,04,12,23,14.20
2018,02,04,12,24,14.20
2018,02,04,12,25,14.20
2018,02,04,12,26,14.20
2018,02,04,12,27,14.30
2018,02,04,12,28,14.20
2018,02,04,12,29,14.20
2018,02,04,12,30,14.20
2018,02,04,12,31,14.20
2018,02,04,12,32,14.20
2018,02,04,12,33,14.20
2018,02,04,12,34,14.20
2018,02,04,12,35,14.20
2018,02,04,12,36,14.20
2018,02,04,12,37,14.20
2018,02,04,12,38,14.20
2018,02,04,12,39,14.10
2018,02,04,12,40,14.10
2018,02,04,12,41,14.10
2018,02,04,12,42,14.10
2018,02,04,12,43,14.00
2018,02,04,12,44,14.00
2018,02,04,12,45,14.00
2018,02,04,12,46,14.00
2018,02,04,12,47,14.00
2018,02,04,12,48,14.00
2018,02,04,12,49,14.10
2018,02,04,12,50,14.20
2018,02,04,12,51,14.20
2018,02,04,12,52,14.20
2018,02,04,12,53,14.20
2018,02,04,12,54,14.30
2018,02,04,12,55,14.30
2018,02,04,12,56,14.30
2018,02,04,12,57,14.20
2018,02,04,12,58,14.20
2018,02,04,12,59,14.20
2018,02,04,13,00,14.10
2018,02,04,13,01,14.10
2018,02,04,13,02,14.10
2018,02,04,13,03,14.00
2018,02,04,13,04,14.00
2018,02,04,13,05,14.00
2018,02,04,13,06,14.00
2018,02,04,13,07,14.00
2018,02,04,13,08,14.10
2018,02,04,13,09,14.10
2018,02,04,13,10,14.10
2018,02,04,13,11,14.10
2018,02,04,13,12,14.10
2018,02,04,13,13,14.10
2018,02,04,13,14,14.10
2018,02,04,13,15,14.10
2018,02,04,13,16,14.10
2018,02,04,13,17,14.10
2018,02,04,13,18,14.20
2018,02,04,13,19,14.20
2018,02,04,13,20,14.20
2018,02,04,13,21,14.10
2018,02,04,13,22,14.10
2018,02,04,13,23,14.10
2018,02,04,13,24,14.10
2018,02,04,13,25,14.00
2018,02,04,13,26,14.00
2018,02,04,13,27,13.90
2018,02,04,13,28,13.90
2018,02,04,13,29,13.90
2018,02,04,13,30,13.90
2018,02,04,13,31,13.90
2018,02,04,13,32,13.90
2018,02,04,13,33,14.00
2018,02,04,13,34,14.10
2018,02,04,13,35,14.10
2018,02,04,13,36,14.10
2018,02,04,13,37,14.10
2018,02,04,13,38,14.10
2018,02,04,13,39,14.20
2018,02,04,13,40,14.20
2018,02,04,13,41,14.20
2018,02,04,13,42,14.20
2018,02,04,13,43,14.30
2018,02,04,13,44,14.30
2018,02,04,13,45,14.20
2018,02,04,13,46,14.20
2018,02,04,13,47,14.10
2018,02,04,13,48,14.10
2018,02,04,13,49,14.20
2018,02,04,13,50,14.20
2018,02,04,13,51,14.20
2018,02,04,13,52,14.20
2018,02,04,13,53,14.20
2018,02,04,13,54,14.30
2018,02,04,13,55,14.30
2018,02,04,13,56,14.30
2018,02,04,13,57,14.20
2018,02,04,13,58,14.10
2018,02,04,13,59,14.10
2018,02,04,14,00,14.10
2018,02,04,14,01,14.10
2018,02,04,14,02,14.00
2018,02,04,14,03,14.00
2018,02,04,14,04,13.90
2018,02,04,14,05,13.90
2018,02,04,14,06,13.90
2018,02,04,14,07,13.80
2018,02,04,14,08,13.80
2018,02,04,14,09,13.70
2018,02,04,14,10,13.60
2018,02,04,14,11,13.50
2018,02,04,14,12,13.40
2018,02,04,14,13,13.30
2018,02,04,14,14,13.20
2018,02,04,14,15,13.20
2018,02,04,14,16,13.10
2018,02,04,14,17,13.10
2018,02,04,14,18,13.10
2018,02,04,14,19,13.20
2018,02,04,14,20,13.20
2018,02,04,14,21,13.20
2018,02,04,14,22,13.30
2018,02,04,14,23,13.30
2018,02,04,14,24,13.30
2018,02,04,14,25,13.40
2018,02,04,14,26,13.40
2018,02,04,14,27,13.30
2018,02,04,14,28,13.30
2018,02,04,14,29,13.20
2018,02,04,14,30,13.20
2018,02,04,14,31,13.20
2018,02,04,14,32,13.20
2018,02,04,14,33,13.20
2018,02,04,14,34,13.20
2018,02,04,14,35,13.20
2018,02,04,14,36,13.20
2018,02,04,14,37,13.20
2018,02,04,14,38,13.20
2018,02,04,14,39,13.20
2018,02,04,14,40,13.20
2018,02,04,14,41,13.20
2018,02,04,14,42,13.20
2018,02,04,14,43,13.20
2018,02,04,14,44,13.20
2018,02,04,14,45,13.20
2018,02,04,14,46,13.20
2018,02,04,14,47,13.20
2018,02,04,14,48,13.20
2018,02,04,14,49,13.30
2018,02,04,14,50,13.30
2018,02,04,14,51,13.30
2018,02,04,14,52,13.30
2018,02,04,14,53,13.20
2018,02,04,14,54,13.20
2018,02,04,14,55,13.20
2018,02,04,14,56,13.20
2018,02,04,14,57,13.20
2018,02,04,14,58,13.10
2018,02,04,14,59,13.10
2018,02,04,15,00,13.10
2018,02,04,15,01,13.10
2018,02,04,15,02,13.10
2018,02,04,15,03,13.10
2018,02,04,15,04,13.00
2018,02,04,15,05,13.00
2018,02,04,15,06,13.00
2018,02,04,15,07,13.00
2018,02,04,15,08,13.00
2018,02,04,15,09,13.00
2018,02,04,15,10,13.00
2018,02,04,15,11,13.00
2018,02,04,15,12,13.00
2018,02,04,15,13,13.00
2018,02,04,15,14,12.90
2018,02,04,15,15,12.90
2018,02,04,15,16,12.90
2018,02,04,15,17,12.90
2018,02,04,15,18,12.90
2018,02,04,15,19,12.90
2018,02,04,15,20,13.00
2018,02,04,15,21,13.00
2018,02,04,15,22,13.00
2018,02,04,15,23,13.10
2018,02,04,15,24,13.10
2018,02,04,15,25,13.10
2018,02,04,15,26,13.20
2018,02,04,15,27,13.20
2018,02,04,15,28,13.20
2018,02,04,15,29,13.20
2018,02,04,15,30,13.20
2018,02,04,15,31,13.20
2018,02,04,15,32,13.20
2018,02,04,15,33,13.20
2018,02,04,15,34,13.20
2018,02,04,15,35,13.20
2018,02,04,15,36,13.20
2018,02,04,15,37,13.10
2018,02,04,15,38,13.10
2018,02,04,15,39,13.10
2018,02,04,15,40,13.00
2018,02,04,15,41,13.00
2018,02,04,15,42,12.90
2018,02,04,15,43,12.90
2018,02,04,15,44,12.90
2018,02,04,15,45,12.90
2018,02,04,15,46,12.80
2018,02,04,15,47,12.80
2018,02,04,15,48,12.80
2018,02,04,15,49,12.80
2018,02,04,15,50,12.80
2018,02,04,15,51,12.80
2018,02,04,15,52,12.70
2018,02,04,15,53,12.70
2018,02,04,15,54,12.70
2018,02,04,15,55,12.70
2018,02,04,15,56,12.70
2018,02,04,15,57,12.70
2018,02,04,15,58,12.70
2018,02,04,15,59,12.70
2018,02,04,16,00,12.70
2018,02,04,16,01,12.70
2018,02,04,16,02,12.70
2018,02,04,16,03,12.70
2018,02,04,16,04,12.70
2018,02,04,16,05,12.70
2018,02,04,16,06,12.70
2018,02,04,16,07,12.60
2018,02,04,16,08,12.60
2018,02,04,16,09,12.60
2018,02,04,16,10,12.60
2018,02,04,16,11,12.60
2018,02,04,16,12,12.60
2018,02,04,16,13,12.60
2018,02,04,16,14,12.60
2018,02,04,16,15,12.60
2018,02,04,16,16,12.60
2018,02,04,16,17,12.50
2018,02,04,16,18,12.50
2018,02,04,16,19,12.50
2018,02,04,16,20,12.50
2018,02,04,16,21,12.40
2018,02,04,16,22,12.40
2018,02,04,16,23,12.30
2018,02,04,16,24,12.30
2018,02,04,16,25,12.20
2018,02,04,16,26,12.20
2018,02,04,16,27,12.20
2018,02,04,16,28,12.10
2018,02,04,16,29,12.10
2018,02,04,16,30,12.00
2018,02,04,16,31,12.00
2018,02,04,16,32,12.00
2018,02,04,16,33,11.90
2018,02,04,16,34,11.90
2018,02,04,16,35,11.90
2018,02,04,16,36,11.90
2018,02,04,16,37,11.90
2018,02,04,16,38,11.90
2018,02,04,16,39,12.00
2018,02,04,16,40,12.10
2018,02,04,16,41,12.20
2018,02,04,16,42,12.30
2018,02,04,16,43,12.30
2018,02,04,16,44,12.40
2018,02,04,16,45,12.40
2018,02,04,16,46,12.50
2018,02,04,16,47,12.50
2018,02,04,16,48,12.50
2018,02,04,16,49,12.50
2018,02,04,16,50,12.50
2018,02,04,16,51,12.50
2018,02,04,16,52,12.40
2018,02,04,16,53,12.40
2018,02,04,16,54,12.40
2018,02,04,16,55,12.40
2018,02,04,16,56,12.30
2018,02,04,16,57,12.30
2018,02,04,16,58,12.30
2018,02,04,16,59,12.30
2018,02,04,17,00,12.30
2018,02,04,17,01,12.30
2018,02,04,17,02,12.30
2018,02,04,17,03,12.20
2018,02,04,17,04,12.20
2018,02,04,17,05,12.20
2018,02,04,17,06,12.10
2018,02,04,17,07,12.10
2018,02,04,17,08,12.00
2018,02,04,17,09,12.00
2018,02,04,17,10,12.00
2018,02,04,17,11,11.90
2018,02,04,17,12,11.90
2018,02,04,17,13,11.80
2018,02,04,17,14,11.80
2018,02,04,17,15,11.70
2018,02,04,17,16,11.70
2018,02,04,17,17,11.70
2018,02,04,17,18,11.60
2018,02,04,17,19,11.60
2018,02,04,17,20,11.60
2018,02,04,17,21,11.60
2018,02,04,17,22,11.70
2018,02,04,17,23,11.70
2018,02,04,17,24,11.70
2018,02,04,17,25,11.80
2018,02,04,17,26,11.80
2018,02,04,17,27,11.80
2018,02,04,17,28,11.80
2018,02,04,17,29,11.80
2018,02,04,17,30,11.80
2018,02,04,17,31,11.80
2018,02,04,17,32,11.80
2018,02,04,17,33,11.80
2018,02,04,17,34,11.90
2018,02,04,17,35,11.90
2018,02,04,17,36,11.90
2018,02,04,17,37,11.80
2018,02,04,17,38,11.80
2018,02,04,17,39,11.80
2018,02,04,17,40,11.80
2018,02,04,17,41,11.80
2018,02,04,17,42,11.80
2018,02,04,17,43,11.80
2018,02,04,17,44,11.70
2018,02,04,17,45,11.70
2018,02,04,17,46,11.60
2018,02,04,17,47,11.60
2018,02,04,17,48,11.50
2018,02,04,17,49,11.40
2018,02,04,17,50,11.40
2018,02,04,17,51,11.30
2018,02,04,17,52,11.30
2018,02,04,17,53,11.30
2018,02,04,17,54,11.20
2018,02,04,17,55,11.20
2018,02,04,17,56,11.20
2018,02,04,17,57,11.20
2018,02,04,17,58,11.20
2018,02,04,17,59,11.20
2018,02,04,18,00,11.20
2018,02,04,18,01,11.20
2018,02,04,18,02,11.20
2018,02,04,18,03,11.20
2018,02,04,18,04,11.20
2018,02,04,18,05,11.20
2018,02,04,18,06,11.20
2018,02,04,18,07,11.10
2018,02,04,18,08,11.10
2018,02,04,18,09,11.00
2018,02,04,18,10,11.00
2018,02,04,18,11,10.90
2018,02,04,18,12,10.90
2018,02,04,18,13,10.90
2018,02,04,18,14,10.90
2018,02,04,18,15,10.80
2018,02,04,18,16,10.80
2018,02,04,18,17,10.80
2018,02,04,18,18,10.80
2018,02,04,18,19,10.80
2018,02,04,18,20,10.80
2018,02,04,18,21,10.80
2018,02,04,18,22,10.80
2018,02,04,18,23,10.80
2018,02,04,18,24,10.90
2018,02,04,18,25,10.90
2018,02,04,18,26,10.90
2018,02,04,18,27,10.90
2018,02,04,18,28,10.90
2018,02,04,18,29,10.90
2018,02,04,18,30,10.90
2018,02,04,18,31,10.90
2018,02,04,18,32,10.90
2018,02,04,18,33,10.90
2018,02,04,18,34,10.90
2018,02,04,18,35,10.90
2018,02,04,18,36,10.80
2018,02,04,18,37,10.80
2018,02,04,18,38,10.80
2018,02,04,18,39,10.80
2018,02,04,18,40,10.80
2018,02,04,18,41,10.70
2018,02,04,18,42,10.70
2018,02,04,18,43,10.60
2018,02,04,18,44,10.60
2018,02,04,18,45,10.60
2018,02,04,18,46,10.60
2018,02,04,18,47,10.60
2018,02,04,18,48,10.60
2018,02,04,18,49,10.60
2018,02,04,18,50,10.60
2018,02,04,18,51,10.60
2018,02,04,18,52,10.50
2018,02,04,18,53,10.50
2018,02,04,18,54,10.40
2018,02,04,18,55,10.40
2018,02,04,18,56,10.40
2018,02,04,18,57,10.40
2018,02,04,18,58,10.30
2018,02,04,18,59,10.30
2018,02,04,19,00,10.30
2018,02,04,19,01,10.30
2018,02,04,19,02,10.20
2018,02,04,19,03,10.20
2018,02,04,19,04,10.20
2018,02,04,19,05,10.20
2018,02,04,19,06,10.20
2018,02,04,19,07,10.20
2018,02,04,19,08,10.20
2018,02,04,19,09,10.20
2018,02,04,19,10,10.20
2018,02,04,19,11,10.20
2018,02,04,19,12,10.20
2018,02,04,19,13,10.20
2018,02,04,19,14,10.20
2018,02,04,19,15,10.20
2018,02,04,19,16,10.20
2018,02,04,19,17,10.10
2018,02,04,19,18,10.10
2018,02,04,19,19,10.10
2018,02,04,19,20,10.10
2018,02,04,19,21,10.10
2018,02,04,19,22,10.10
2018,02,04,19,23,10.10
2018,02,04,19,24,10.10
2018,02,04,19,25,10.10
2018,02,04,19,26,10.10
2018,02,04,19,27,10.10
2018,02,04,19,28,10.10
2018,02,04,19,29,10.10
2018,02,04,19,30,10.10
2018,02,04,19,31,10.10
2018,02,04,19,32,10.10
2018,02,04,19,33,10.10
2018,02,04,19,34,10.10
2018,02,04,19,35,10.10
2018,02,04,19,36,10.10
2018,02,04,19,37,10.00
2018,02,04,19,38,10.00
2018,02,04,19,39,10.00
2018,02,04,19,40,10.00
2018,02,04,19,41,10.00
2018,02,04,19,42,10.00
2018,02,04,19,43,10.00
2018,02,04,19,44,10.00
2018,02,04,19,45,9.90
2018,02,04,19,46,9.90
2018,02,04,19,47,9.90
2018,02,04,19,48,9.90
2018,02,04,19,49,9.90
2018,02,04,19,50,9.90
2018,02,04,19,51,9.90
2018,02,04,19,52,9.90
2018,02,04,19,53,9.90
2018,02,04,19,54,9.90
2018,02,04,19,55,9.90
2018,02,04,19,56,9.90
2018,02,04,19,57,9.80
2018,02,04,19,58,9.80
2018,02,04,19,59,9.80
2018,02,04,20,00,9.80
2018,02,04,20,01,9.80
2018,02,04,20,02,9.80
2018,02,04,20,03,9.80
2018,02,04,20,04,9.80
2018,02,04,20,05,9.70
2018,02,04,20,06,9.70
2018,02,04,20,07,9.70
2018,02,04,20,08,9.70
2018,02,04,20,09,9.60
2018,02,04,20,10,9.60
2018,02,04,20,11,9.60
2018,02,04,20,12,9.60
2018,02,04,20,13,9.60
2018,02,04,20,14,9.60
2018,02,04,20,15,9.60
2018,02,04,20,16,9.60
2018,02,04,20,17,9.60
2018,02,04,20,18,9.60
2018,02,04,20,19,9.60
2018,02,04,20,20,9.60
2018,02,04,20,21,9.50
2018,02,04,20,22,9.50
2018,02,04,20,23,9.50
2018,02,04,20,24,9.50
2018,02,04,20,25,9.50
2018,02,04,20,26,9.50
2018,02,04,20,27,9.50
2018,02,04,20,28,9.50
2018,02,04,20,29,9.50
2018,02,04,20,30,9.50
2018,02,04,20,31,9.50
2018,02,04,20,32,9.40
2018,02,04,20,33,9.40
2018,02,04,20,34,9.40
2018,02,04,20,35,9.40
2018,02,04,20,36,9.40
2018,02,04,20,37,9.40
2018,02,04,20,38,9.40
2018,02,04,20,39,9.40
2018,02,04,20,40,9.40
2018,02,04,20,41,9.40
2018,02,04,20,42,9.40
2018,02,04,20,43,9.40
2018,02,04,20,44,9.40
2018,02,04,20,45,9.40
2018,02,04,20,46,9.40
2018,02,04,20,47,9.40
2018,02,04,20,48,9.50
2018,02,04,20,49,9.50
2018,02,04,20,50,9.50
2018,02,04,20,51,9.50
2018,02,04,20,52,9.40
2018,02,04,20,53,9.40
2018,02,04,20,54,9.40
2018,02,04,20,55,9.40
2018,02,04,20,56,9.40
2018,02,04,20,57,9.40
2018,02,04,20,58,9.40
2018,02,04,20,59,9.40
2018,02,04,21,00,9.40
2018,02,04,21,01,9.40
2018,02,04,21,02,9.40
2018,02,04,21,03,9.50
2018,02,04,21,04,9.50
2018,02,04,21,05,9.50
2018,02,04,21,06,9.50
2018,02,04,21,07,9.50
2018,02,04,21,08,9.50
2018,02,04,21,09,9.50
2018,02,04,21,10,9.50
2018,02,04,21,11,9.50
2018,02,04,21,12,9.50
2018,02,04,21,13,9.60
2018,02,04,21,14,9.60
2018,02,04,21,15,9.60
2018,02,04,21,16,9.60
2018,02,04,21,17,9.60
2018,02,04,21,18,9.60
2018,02,04,21,19,9.60
2018,02,04,21,20,9.60
2018,02,04,21,21,9.60
2018,02,04,21,22,9.60
2018,02,04,21,23,9.60
2018,02,04,21,24,9.60
2018,02,04,21,25,9.60
2018,02,04,21,26,9.60
2018,02,04,21,27,9.60
2018,02,04,21,28,9.60
2018,02,04,21,29,9.60
2018,02,04,21,30,9.60
2018,02,04,21,31,9.70
2018,02,04,21,32,9.70
2018,02,04,21,33,9.70
2018,02,04,21,34,9.60
2018,02,04,21,35,9.60
2018,02,04,21,36,9.60
2018,02,04,21,37,9.60
2018,02,04,21,38,9.60
2018,02,04,21,39,9.60
2018,02,04,21,40,9.60
2018,02,04,21,41,9.60
2018,02,04,21,42,9.60
2018,02,04,21,43,9.60
2018,02,04,21,44,9.60
2018,02,04,21,45,9.70
2018,02,04,21,46,9.70
2018,02,04,21,47,9.60
2018,02,04,21,48,9.60
2018,02,04,21,49,9.60
2018,02,04,21,50,9.60
2018,02,04,21,51,9.60
2018,02,04,21,52,9.60
2018,02,04,21,53,9.60
2018,02,04,21,54,9.60
2018,02,04,21,55,9.60
2018,02,04,21,56,9.60
2018,02,04,21,57,9.60
2018,02,04,21,58,9.60
2018,02,04,21,59,9.60
2018,02,04,22,00,9.60
2018,02,04,22,01,9.60
2018,02,04,22,02,9.60
2018,02,04,22,03,9.50
2018,02,04,22,04,9.40
2018,02,04,22,05,9.40
2018,02,04,22,06,9.50
2018,02,04,22,07,9.50
2018,02,04,22,08,9.50
2018,02,04,22,09,9.50
2018,02,04,22,10,9.50
2018,02,04,22,11,9.50
2018,02,04,22,12,9.50
2018,02,04,22,13,9.50
2018,02,04,22,14,9.60
2018,02,04,22,15,9.60
2018,02,04,22,16,9.60
2018,02,04,22,17,9.60
2018,02,04,22,18,9.60
2018,02,04,22,19,9.60
2018,02,04,22,20,9.60
2018,02,04,22,21,9.60
2018,02,04,22,22,9.60
2018,02,04,22,23,9.60
2018,02,04,22,24,9.60
2018,02,04,22,25,9.50
2018,02,04,22,26,9.60
2018,02,04,22,27,9.50
2018,02,04,22,28,9.60
2018,02,04,22,29,9.60
2018,02,04,22,30,9.50
2018,02,04,22,31,9.50
2018,02,04,22,32,9.40
2018,02,04,22,33,9.40
2018,02,04,22,34,9.40
2018,02,04,22,35,9.40
2018,02,04,22,36,9.40
2018,02,04,22,37,9.40
2018,02,04,22,38,9.40
2018,02,04,22,39,9.40
2018,02,04,22,40,9.40
2018,02,04,22,41,9.40
2018,02,04,22,42,9.40
2018,02,04,22,43,9.40
2018,02,04,22,44,9.40
2018,02,04,22,45,9.40
2018,02,04,22,46,9.40
2018,02,04,22,47,9.40
2018,02,04,22,48,9.50
2018,02,04,22,49,9.50
2018,02,04,22,50,9.50
2018,02,04,22,51,9.50
2018,02,04,22,52,9.50
2018,02,04,22,53,9.50
2018,02,04,22,54,9.40
2018,02,04,22,55,9.40
2018,02,04,22,56,9.40
2018,02,04,22,57,9.40
2018,02,04,22,58,9.40
2018,02,04,22,59,9.50
2018,02,04,23,00,9.40
2018,02,04,23,01,9.40
2018,02,04,23,02,9.40
2018,02,04,23,03,9.40
2018,02,04,23,04,9.40
2018,02,04,23,05,9.40
2018,02,04,23,06,9.40
2018,02,04,23,07,9.40
2018,02,04,23,08,9.30
2018,02,04,23,09,9.30
2018,02,04,23,10,9.30
2018,02,04,23,11,9.30
2018,02,04,23,12,9.30
2018,02,04,23,13,9.30
2018,02,04,23,14,9.30
2018,02,04,23,15,9.30
2018,02,04,23,16,9.40
2018,02,04,23,17,9.40
2018,02,04,23,18,9.40
2018,02,04,23,19,9.50
2018,02,04,23,20,9.50
2018,02,04,23,21,9.50
2018,02,04,23,22,9.50
2018,02,04,23,23,9.50
2018,02,04,23,24,9.60
2018,02,04,23,25,9.60
2018,02,04,23,26,9.60
2018,02,04,23,27,9.60
2018,02,04,23,28,9.60
2018,02,04,23,29,9.60
2018,02,04,23,30,9.60
2018,02,04,23,31,9.60
2018,02,04,23,32,9.70
2018,02,04,23,33,9.70
2018,02,04,23,34,9.70
2018,02,04,23,35,9.70
2018,02,04,23,36,9.70
2018,02,04,23,37,9.70
2018,02,04,23,38,9.70
2018,02,04,23,39,9.70
2018,02,04,23,40,9.70
2018,02,04,23,41,9.70
2018,02,04,23,42,9.80
2018,02,04,23,43,9.80
2018,02,04,23,44,9.80
2018,02,04,23,45,9.80
2018,02,04,23,46,9.80
2018,02,04,23,47,9.80
2018,02,04,23,48,9.80
2018,02,04,23,49,9.80
2018,02,04,23,50,9.70
2018,02,04,23,51,9.70
2018,02,04,23,52,9.70
2018,02,04,23,53,9.70
2018,02,04,23,54,9.60
2018,02,04,23,55,9.60
2018,02,04,23,56,9.60
2018,02,04,23,57,9.60
2018,02,04,23,58,9.60
2018,02,04,23,59,9.60
